DW5673 Weather Reports


time (UTC)temp
C
wind
direction
speed
KPH
gust
KPH
rain 1hr
cm
rain 24hr
cm
rain mn
cm
humidity
%
barometer
mb
20260906121530 21 30 0.0 0.0 0.00 0.00 0.00 97 1019.3
20260906120027 21 30 0.0 4.8 0.00 0.00 0.00 96 1019.1
20260906114528 21 30 0.0 3.2 0.00 0.00 0.00 96 1018.8
20260906113024 21 30 0.0 4.8 0.00 0.00 0.00 96 1018.7
20260906111520 21 30 0.0 4.8 0.00 0.00 0.00 96 1018.4
20260906110019 21 30 1.6 4.8 0.00 0.00 0.00 96 1018.5
20260906104517 21 30 0.0 4.8 0.00 0.00 0.00 95 1018.1
20260906103016 21 30 0.0 3.2 0.00 0.00 0.00 95 1018.0
20260906101515 21 30 0.0 1.6 0.00 0.00 0.00 95 1018.0
20260906100013 21 30 0.0 3.2 0.00 0.00 0.00 95 1017.9
20260906094511 21 30 0.0 1.6 0.00 0.00 0.00 94 1017.8
20260906093032 21 30 0.0 3.2 0.00 0.00 0.00 94 1017.8
20260906091509 21 30 0.0 4.8 0.00 0.00 0.00 94 1017.7
20260906090108 22 30 0.0 4.8 0.00 0.00 0.00 94 1017.6
20260906084545 22 29 1.6 6.4 0.00 0.00 0.00 93 1017.6
20260906083042 22 51 0.0 4.8 0.00 0.00 0.00 93 1017.6
20260906081537 22 51 0.0 6.4 0.00 0.00 0.00 93 1017.5
20260906080037 22 52 1.6 6.4 0.00 0.00 0.00 93 1017.8
20260906074546 22 49 0.0 6.4 0.00 0.00 0.00 93 1017.7
20260906073033 22 49 1.6 6.4 0.00 0.00 0.00 92 1017.7
20260906071532 22 49 0.0 8.0 0.00 0.00 0.00 92 1017.8
20260906070032 22 30 0.0 8.0 0.00 0.00 0.00 92 1017.9
20260906064534 22 49 0.0 6.4 0.00 0.00 0.00 92 1017.7
20260906063030 23 50 0.0 8.0 0.00 0.00 0.00 92 1017.7
20260906061533 23 49 3.2 9.7 0.00 0.00 0.00 92 1017.8
20260906060028 23 49 1.6 9.7 0.00 0.00 0.00 91 1017.7
20260906054527 23 51 1.6 9.7 0.00 0.00 0.00 91 1017.6
20260906053025 23 59 1.6 11.3 0.00 0.00 0.00 91 1017.6
20260906051526 23 59 0.0 9.7 0.00 0.00 0.00 91 1017.6
20260906050023 23 13 1.6 14.5 0.00 0.00 0.00 91 1017.5
20260906044519 23 84 0.0 6.4 0.00 0.00 0.00 91 1017.3
20260906043018 23 45 1.6 17.7 0.00 0.00 0.00 91 1017.0
20260906041522 23 55 1.6 9.7 0.00 0.00 0.00 90 1016.7
20260906040015 23 109 0.0 17.7 0.00 0.00 0.00 90 1016.7
20260906034515 23 72 4.8 17.7 0.00 0.00 0.00 90 1016.6
20260906033012 23 66 0.0 11.3 0.00 0.00 0.00 89 1016.5
20260906031512 23 76 0.0 14.5 0.00 0.00 0.00 89 1016.6
20260906030011 23 49 3.2 17.7 0.00 0.00 0.00 89 1016.6
20260906024509 23 33 3.2 16.1 0.00 0.00 0.00 89 1016.6
20260906023008 23 51 3.2 14.5 0.00 0.00 0.00 89 1016.5
20260906021508 23 55 3.2 17.7 0.00 0.00 0.00 89 1016.5
20260906020006 23 50 6.4 16.1 0.00 0.00 0.00 90 1016.4
20260906014517 23 75 3.2 19.3 0.00 0.00 0.00 90 1016.7
20260906013004 23 100 8.0 19.3 0.00 0.00 0.00 90 1016.6
20260906011501 23 41 8.0 25.7 0.00 0.00 0.00 89 1016.6
20260906010129 23 34 4.8 24.1 0.00 0.00 0.00 89 1016.5
20260906004557 23 82 6.4 17.7 0.00 0.00 0.00 89 1016.2
20260906003053 23 41 9.7 27.4 0.00 0.00 0.00 89 1015.9
20260906001603 23 28 9.7 22.5 0.00 0.00 0.00 88 1015.8
20260906000048 24 43 11.3 25.7 0.00 0.00 0.00 88 1015.8
20260905234543 24 42 6.4 22.5 0.00 0.00 0.00 87 1015.7
20260905233040 25 78 12.9 25.7 0.00 0.00 0.00 85 1015.6
20260905231543 25 69 4.8 20.9 0.00 0.00 0.00 85 1015.3
20260905230039 26 77 11.3 25.7 0.00 0.00 0.00 83 1015.2
20260905224543 26 87 9.7 22.5 0.00 0.00 0.00 82 1015.1
20260905223040 27 355 4.8 19.3 0.00 0.00 0.00 81 1014.8
20260905221541 27 76 11.3 20.9 0.00 0.00 0.00 80 1014.8
20260905220035 27 63 8.0 19.3 0.00 0.00 0.00 79 1014.9
20260905214533 27 42 4.8 20.9 0.00 0.00 0.00 80 1014.8
20260905213035 27 76 4.8 17.7 0.00 0.00 0.00 81 1014.8
20260905211541 27 45 3.2 9.7 0.00 0.00 0.00 83 1014.8
20260905210035 27 84 3.2 14.5 0.00 0.00 0.00 84 1015.0
20260905204532 27 36 4.8 16.1 0.00 0.00 0.00 83 1015.1
20260905203042 27 32 3.2 17.7 0.00 0.00 0.00 83 1015.1
20260905201549 27 79 1.6 17.7 0.00 0.00 0.00 82 1015.0
20260905200030 27 67 4.8 14.5 0.00 0.00 0.00 82 1015.1
20260905194529 27 317 4.8 19.3 0.00 0.00 0.00 82 1015.0
20260905193033 27 105 6.4 19.3 0.00 0.00 0.00 81 1015.1
20260905191529 28 44 4.8 20.9 0.00 0.00 0.00 81 1015.2
20260905190027 28 38 3.2 16.1 0.00 0.00 0.00 81 1015.1
20260905184530 28 49 6.4 22.5 0.00 0.00 0.00 81 1015.1
20260905183029 28 31 6.4 22.5 0.00 0.00 0.00 80 1015.3
20260905181523 28 62 9.7 19.3 0.00 0.00 0.00 79 1015.1
20260905180023 29 43 3.2 20.9 0.00 0.00 0.00 80 1015.0
20260905174522 28 29 6.4 17.7 0.00 0.00 0.00 79 1015.0
20260905173021 28 53 9.7 19.3 0.00 0.00 0.00 79 1015.0
20260905171521 29 29 6.4 16.1 0.00 0.00 0.00 79 1015.0
20260905170020 29 51 6.4 17.7 0.00 0.00 0.00 79 1015.1
20260905164519 29 43 4.8 17.7 0.00 0.00 0.00 79 1015.2
20260905163019 29 30 4.8 11.3 0.00 0.00 0.00 80 1015.1
20260905161519 29 28 4.8 16.1 0.00 0.00 0.00 80 1015.2
20260905160016 29 51 6.4 14.5 0.00 0.00 0.00 80 1015.1
20260905154512 28 53 6.4 14.5 0.00 0.00 0.00 83 1015.1
20260905153043 28 138 3.2 17.7 0.00 0.00 0.00 84 1015.0
20260905151511 27 84 1.6 19.3 0.00 0.00 0.00 86 1014.8
20260905150016 27 77 4.8 17.7 0.00 0.00 0.00 86 1014.6
20260905144512 26 76 8.0 16.1 0.00 0.00 0.00 90 1014.7
20260905143004 26 35 3.2 19.3 0.00 0.00 0.00 92 1014.6
20260905141504 25 70 3.2 14.5 0.00 0.00 0.00 94 1014.5
20260905140003 25 41 4.8 14.5 0.00 0.00 0.00 94 1014.4
20260905134502 25 8 6.4 16.1 0.00 0.00 0.00 94 1014.4
20260905133000 25 35 3.2 17.7 0.00 0.00 0.00 94 1014.6
20260905131615 25 46 4.8 16.1 0.00 0.00 0.00 95 1014.6
20260905130057 25 52 1.6 8.0 0.00 0.00 0.00 95 1014.1
20260905124554 25 75 4.8 19.3 0.00 0.00 0.00 95 1014.0
20260905123052 25 72 3.2 9.7 0.00 0.00 0.00 95 1013.5
20260905121551 25 49 3.2 8.0 0.00 0.00 0.00 95 1013.6